This is the latest recevied weather packets stored in our database for station/object K0KDS. If no packets are shown the sender has not sent any weather packets the latest 10 day(s).
| Time | Temp. | Humidity | Pressure | Rain* | Wind** | Luminosity | Snow |
|---|---|---|---|---|---|---|---|
| 1777726046 | 3.89° C | 76% | 1018.6 hPa | 0 mm | - | - | - |
| 1777725146 | 3.33° C | 77% | 1018.5 hPa | 0 mm | - | - | - |
| 1777724246 | 2.78° C | 77% | 1018.5 hPa | 0 mm | - | - | - |
| 1777723346 | 2.22° C | 77% | 1018.4 hPa | 0 mm | - | - | - |
| 1777722446 | 1.67° C | 79% | 1018.3 hPa | 0 mm | - | - | - |
| 1777721546 | 1.11° C | 81% | 1018.1 hPa | 0 mm | - | - | - |
| 1777720646 | 1.11° C | 80% | 1018 hPa | 0 mm | - | - | - |
| 1777719746 | 1.11° C | 80% | 1017.9 hPa | 0 mm | - | - | - |
| 1777718846 | 1.67° C | 79% | 1017.9 hPa | 0 mm | - | - | - |
| 1777717946 | 1.67° C | 80% | 1017.8 hPa | 0 mm | - | - | - |
| 1777717046 | 1.67° C | 80% | 1017.7 hPa | 0 mm | - | - | - |
| 1777716146 | 1.67° C | 80% | 1017.6 hPa | 0 mm | - | - | - |
| 1777715246 | 1.67° C | 82% | 1017.5 hPa | 0 mm | - | - | - |
| 1777714346 | 1.67° C | 81% | 1017.5 hPa | 0 mm | - | - | - |
| 1777713866 | 1.67° C | 81% | 1017.5 hPa | 0 mm | - | - | - |
| 1777713386 | 1.67° C | 81% | 1017.6 hPa | 0 mm | - | - | - |
| 1777713146 | 1.67° C | 81% | 1017.6 hPa | 0 mm | - | - | - |
| 1777712906 | 1.67° C | 81% | 1017.5 hPa | 0 mm | - | - | - |
| 1777712786 | 1.67° C | 81% | 1017.6 hPa | 0 mm | - | - | - |
| 1777712666 | 1.67° C | 81% | 1017.5 hPa | 0 mm | - | - | - |
| 1777712606 | 1.67° C | 80% | 1017.6 hPa | 0 mm | - | - | - |
| 1777711648 | 1.67° C | 81% | 1017.5 hPa | 0 mm | - | - | - |
| 1777710748 | 2.22° C | 79% | 1017.3 hPa | 0 mm | - | - | - |
| 1777709848 | 2.22° C | 78% | 1017.4 hPa | 0 mm | - | - | - |
| 1777708948 | 2.78° C | 77% | 1017.4 hPa | 0 mm | - | - | - |
* Rain latest hour (hover to see other rain measurements)
** Current wind speed in m/s (hover to see current wind gust speed)